Sauk Centre, MN

6:37 AM CDT on May 30, 2017 (GMT -0500)
Sauk Centre

Weather History for KD39 - October, 2013

Change the Weather History Date:

Monday, October 7, 2013

  Actual Average (KGHW) Record (KGHW)
Temperature  
Mean Temperature 50 °F -  
Max Temperature 64 °F 62 °F 89 °F (2003)
Min Temperature 36 °F 38 °F 21 °F (2012)
Degree Days  
Heating Degree Days 15    
Moisture  
Dew Point 39 °F    
Average Humidity 70    
Maximum Humidity 99    
Minimum Humidity 36    
Precipitation  
Precipitation 0.00 in - - ()
Sea Level Pressure  
Sea Level Pressure 29.92 in    
Wind  
Wind Speed 3 mph (WSW)    
Max Wind Speed 7 mph    
Max Gust Speed -    
Visibility 10 miles    
Events      
Averages and records for this station are not official NWS values.
T = Trace of Precipitation, MM = Missing Value Source: NWS Daily Summary

Daily Weather History Graph

Daily Weather History Graph

Search for Another Location

Airport or City:

Trip Planner

Search our weather history database for the weather conditions in past years. The results will help you decide how hot, cold, wet, or windy it might be!

Date:

Astronomy

Oct. 07, 2013 Rise Set
Actual Time 7:26 AM CDT 6:48 PM CDT
Civil Twilight 6:56 AM CDT 7:17 PM CDT
Nautical Twilight 6:21 AM CDT 7:52 PM CDT
Astronomical Twilight 5:47 AM CDT 8:26 PM CDT
Moon 10:26 AM CDT (10/7) 8:23 PM CDT (10/7)
Length of Visible Light 12h 21m
Length of Day
11h 21m
Waxing Crescent, 9% of the Moon is Illuminated
Oct 7
Waxing Crescent
Oct 11
First Quarter
Oct 18
Full
Oct 26
Last Quarter
Nov 3
New

Hourly Weather History & Observations

Time (CDT) Temp. Windchill Dew Point Humidity Pressure Visibility Wind Dir Wind Speed Gust Speed Precip Events Conditions
12:11 AM 44.2 °F 42.7 °F 40.3 °F 86% 29.85 in 10.0 mi West 3.5 mph - N/A   Overcast
12:31 AM 45.1 °F - 40.8 °F 85% 29.85 in 10.0 mi Calm Calm - N/A   Overcast
12:51 AM 45.0 °F 43.5 °F 41.0 °F 86% 29.85 in 10.0 mi West 3.5 mph - N/A   Overcast
1:11 AM 45.0 °F 43.5 °F 40.5 °F 84% 29.85 in 10.0 mi West 3.5 mph - N/A   Mostly Cloudy
1:31 AM 44.2 °F 41.8 °F 40.1 °F 85% 29.85 in 10.0 mi West 4.6 mph - N/A   Scattered Clouds
1:51 AM 43.7 °F 41.1 °F 40.1 °F 87% 29.84 in 10.0 mi West 4.6 mph - N/A   Clear
2:12 AM 44.1 °F 40.8 °F 40.3 °F 87% 29.84 in 10.0 mi West 5.8 mph - N/A   Clear
2:31 AM 43.7 °F - 40.1 °F 87% 29.85 in 10.0 mi Calm Calm - N/A   Clear
2:51 AM 44.6 °F 43.1 °F 40.3 °F 85% 29.85 in 10.0 mi WNW 3.5 mph - N/A   Clear
3:11 AM 42.8 °F - 39.7 °F 89% 29.85 in 10.0 mi Calm Calm - N/A   Clear
3:31 AM 43.2 °F - 40.1 °F 89% 29.85 in 10.0 mi Calm Calm - N/A   Clear
3:52 AM 42.3 °F - 39.4 °F 90% 29.85 in 10.0 mi Calm Calm - N/A   Clear
4:11 AM 40.3 °F 38.2 °F 38.5 °F 93% 29.85 in 10.0 mi West 3.5 mph - N/A   Clear
4:31 AM 40.1 °F 36.9 °F 38.3 °F 93% 29.85 in 10.0 mi West 4.6 mph - N/A   Clear
4:51 AM 39.9 °F 37.8 °F 37.9 °F 93% 29.86 in 10.0 mi West 3.5 mph - N/A   Clear
5:11 AM 38.8 °F 36.5 °F 37.6 °F 95% 29.86 in 10.0 mi West 3.5 mph - N/A   Clear
5:31 AM 38.8 °F - 37.6 °F 95% 29.87 in 10.0 mi Calm Calm - N/A   Clear
5:51 AM 39.4 °F - 38.3 °F 96% 29.87 in 10.0 mi Calm Calm - N/A   Clear
6:11 AM 37.8 °F 35.3 °F 37.0 °F 97% 29.88 in 10.0 mi West 3.5 mph - N/A   Clear
6:31 AM 37.8 °F 35.3 °F 37.2 °F 98% 29.88 in 10.0 mi WNW 3.5 mph - N/A   Clear
6:51 AM 38.1 °F - 37.4 °F 97% 29.89 in 10.0 mi Calm Calm - N/A   Clear
7:11 AM 37.4 °F 34.9 °F 36.7 °F 97% 29.90 in 10.0 mi WNW 3.5 mph - N/A   Clear
7:31 AM 36.5 °F 32.7 °F 36.0 °F 98% 29.91 in 10.0 mi West 4.6 mph - N/A   Clear
7:51 AM 36.5 °F 32.7 °F 36.1 °F 99% 29.92 in 10.0 mi West 4.6 mph - N/A   Clear
8:11 AM 38.3 °F 35.9 °F 37.8 °F 98% 29.92 in 10.0 mi West 3.5 mph - N/A   Clear
8:31 AM 40.6 °F - 39.4 °F 95% 29.94 in 10.0 mi Calm Calm - N/A   Clear
8:51 AM 43.3 °F - 41.4 °F 93% 29.94 in 10.0 mi Calm Calm - N/A   Clear
9:12 AM 47.5 °F - 41.5 °F 80% 29.95 in 10.0 mi NNW 3.5 mph - N/A   Clear
9:31 AM 48.7 °F - 41.2 °F 75% 29.95 in 10.0 mi NNW 3.5 mph - N/A   Clear
9:51 AM 50.4 °F - 41.4 °F 71% 29.96 in 10.0 mi NW 4.6 mph - N/A   Clear
10:11 AM 52.3 °F - 42.3 °F 69% 29.96 in 10.0 mi Calm Calm - N/A   Clear
10:31 AM 54.1 °F - 42.8 °F 66% 29.97 in 10.0 mi Calm Calm - N/A   Clear
10:51 AM 55.4 °F - 41.2 °F 59% 29.97 in 10.0 mi Calm Calm - N/A   Clear
11:11 AM 57.6 °F - 40.8 °F 54% 29.97 in 10.0 mi NNW 3.5 mph - N/A   Clear
11:31 AM 58.1 °F - 38.1 °F 47% 29.97 in 10.0 mi Calm Calm - N/A   Clear
11:51 AM 58.8 °F - 38.3 °F 47% 29.97 in 10.0 mi NE 3.5 mph - N/A   Clear
12:11 PM 59.4 °F - 39.6 °F 48% 29.98 in 10.0 mi NE 3.5 mph - N/A   Clear
12:31 PM 60.6 °F - 40.5 °F 47% 29.98 in 10.0 mi SSW 3.5 mph - N/A   Clear
12:51 PM 60.1 °F - 38.1 °F 44% 29.97 in 10.0 mi Calm Calm - N/A   Clear
1:11 PM 60.8 °F - 40.1 °F 46% 29.97 in 10.0 mi North 5.8 mph - N/A   Clear
1:31 PM 61.0 °F - 38.1 °F 43% 29.97 in 10.0 mi Calm Calm - N/A   Clear
1:51 PM 61.9 °F - 38.1 °F 41% 29.96 in 10.0 mi NNW 4.6 mph - N/A   Clear
2:11 PM 61.9 °F - 38.5 °F 42% 29.96 in 10.0 mi NW 3.5 mph - N/A   Clear
2:31 PM 62.4 °F - 38.7 °F 41% 29.96 in 10.0 mi WSW 3.5 mph - N/A   Clear
2:51 PM 62.8 °F - 37.6 °F 39% 29.96 in 10.0 mi West 3.5 mph - N/A   Clear
3:11 PM 63.3 °F - 38.5 °F 40% 29.95 in 10.0 mi Calm Calm - N/A   Clear
3:31 PM 63.5 °F - 37.4 °F 38% 29.95 in 10.0 mi Calm Calm - N/A   Clear
3:51 PM 63.7 °F - 39.0 °F 40% 29.94 in 10.0 mi West 6.9 mph - N/A   Clear
4:11 PM 63.9 °F - 38.7 °F 39% 29.94 in 10.0 mi Calm Calm - N/A   Clear
4:31 PM 64.6 °F - 39.6 °F 40% 29.94 in 10.0 mi SW 5.8 mph - N/A   Clear
4:51 PM 64.0 °F - 36.3 °F 36% 29.94 in 10.0 mi Calm Calm - N/A   Clear
5:11 PM 63.9 °F - 36.3 °F 36% 29.94 in 10.0 mi SSW 3.5 mph - N/A   Clear
5:31 PM 63.5 °F - 37.9 °F 39% 29.93 in 10.0 mi SSW 5.8 mph - N/A   Clear
5:51 PM 62.1 °F - 41.5 °F 47% 29.93 in 10.0 mi SSW 5.8 mph - N/A   Clear
6:11 PM 60.1 °F - 43.5 °F 54% 29.93 in 10.0 mi South 3.5 mph - N/A   Clear
6:31 PM 58.3 °F - 42.1 °F 55% 29.93 in 10.0 mi South 4.6 mph - N/A   Clear
6:51 PM 58.3 °F - 40.3 °F 51% 29.94 in 10.0 mi Calm Calm - N/A   Clear
7:12 PM 54.3 °F - 41.2 °F 61% 29.94 in 10.0 mi SE 3.5 mph - N/A   Clear
7:31 PM 54.0 °F - 41.0 °F 62% 29.94 in 10.0 mi SE 3.5 mph - N/A   Clear
7:51 PM 51.6 °F - 40.8 °F 67% 29.94 in 10.0 mi SE 3.5 mph - N/A   Clear
8:11 PM 50.9 °F - 41.5 °F 70% 29.94 in 10.0 mi Calm Calm - N/A   Clear
8:31 PM 50.4 °F - 41.0 °F 70% 29.94 in 10.0 mi Calm Calm - N/A   Clear
8:51 PM 47.3 °F - 41.9 °F 82% 29.94 in 10.0 mi SE 5.8 mph - N/A   Clear
9:12 PM 50.0 °F - 40.1 °F 69% 29.94 in 10.0 mi SE 4.6 mph - N/A   Clear
9:31 PM 47.8 °F - 40.1 °F 75% 29.93 in 10.0 mi SE 4.6 mph - N/A   Clear
9:51 PM 47.1 °F - 40.3 °F 77% 29.94 in 10.0 mi ESE 4.6 mph - N/A   Clear
10:11 PM 47.3 °F - 40.5 °F 77% 29.92 in 10.0 mi ESE 4.6 mph - N/A   Clear
10:31 PM 45.7 °F 44.4 °F 40.3 °F 81% 29.93 in 10.0 mi ESE 3.5 mph - N/A   Clear
10:51 PM 47.1 °F - 39.2 °F 74% 29.92 in 10.0 mi SE 4.6 mph - N/A   Clear
11:11 PM 46.0 °F 43.9 °F 39.0 °F 76% 29.92 in 10.0 mi SE 4.6 mph - N/A   Clear
11:31 PM 46.6 °F - 38.7 °F 74% 29.92 in 10.0 mi SE 5.8 mph - N/A   Clear
11:51 PM 47.3 °F - 39.6 °F 74% 29.92 in 10.0 mi SE 5.8 mph - N/A   Clear